Weather History for Omak, WA

Change the Weather History Date:

Thursday, February 20, 2014

  Actual Average Record
Temperature  
Mean Temperature 38 °F 33 °F  
Max Temperature 50 °F 42 °F 58 °F (1961)
Min Temperature 26 °F 24 °F 0 °F (1936)
Degree Days  
Heating Degree Days 27 32  
Month to date heating degree days 751 681  
Since 1 July heating degree days 4706 4614  
Cooling Degree Days 0 0  
Month to date cooling degree days 0 0  
Year to date cooling degree days 0 0  
Moisture  
Dew Point 22 °F    
Average Humidity 50    
Maximum Humidity 75    
Minimum Humidity 24    
Precipitation  
Precipitation T in 0.05 in 1.10 in (1996)
Month to date precipitation 1.18 0.93  
Year to date precipitation 1.50 2.62  
Sea Level Pressure  
Sea Level Pressure 29.96 in    
Wind  
Wind Speed 8 mph (SW)    
Max Wind Speed 25 mph    
Max Gust Speed 35 mph    
Visibility 10 miles    
Events      
T = Trace of Precipitation, MM = Missing Value Source: NWS Daily Summary

Daily Weather History Graph

Daily Weather History Graph

Search for Another Location

Airport:

Trip Planner

Search our weather history database for the weather conditions in past years. The results will help you decide how hot, cold, wet, or windy it might be!

Date:

Astronomy

Feb. 20, 2014 Rise Set
Actual Time 6:56 AM PST 5:27 PM PST
Civil Twilight 6:24 AM PST 5:59 PM PST
Nautical Twilight 5:48 AM PST 6:36 PM PST
Astronomical Twilight 5:11 AM PST 7:12 PM PST
Moon 11:59 PM PST (2/20) 9:13 AM PST (2/20)
Length of Visible Light 11h 35m
Length of Day
10h 31m
Waning Gibbous, 70% of the Moon is Illuminated
Feb 20
Waning Gibbous
Feb 22
Last Quarter
Mar 1
New
Mar 8
First Quarter
Mar 16
Full

Hourly Weather History & Observations

Time (PST) Temp. Windchill Dew Point Humidity Pressure Visibility Wind Dir Wind Speed Gust Speed Precip Events Conditions
12:53 AM 32.0 °F 24.8 °F 19.9 °F 61% 30.05 in 10.0 mi South 8.1 mph - N/A   Clear
1:53 AM 30.9 °F 23.5 °F 21.0 °F 67% 30.02 in 10.0 mi SW 8.1 mph - N/A   Clear
2:53 AM 30.9 °F 24.3 °F 21.0 °F 67% 30.00 in 10.0 mi SW 6.9 mph - N/A   Mostly Cloudy
3:53 AM 32.0 °F 26.4 °F 21.9 °F 66% 29.98 in 10.0 mi South 5.8 mph - N/A   Overcast
4:53 AM 34.0 °F 26.0 °F 25.0 °F 70% 29.96 in 10.0 mi South 10.4 mph - N/A   Overcast
5:53 AM 35.1 °F 27.9 °F 26.1 °F 70% 29.95 in 10.0 mi SSW 9.2 mph - N/A   Overcast
6:53 AM 34.0 °F 28.8 °F 26.1 °F 73% 29.95 in 10.0 mi West 5.8 mph - 0.00 in   Overcast
7:25 AM 34.0 °F 27.2 °F 27.0 °F 75% 29.90 in 10.0 mi West 8.1 mph - N/A   Overcast
7:53 AM 34.0 °F 28.0 °F 27.0 °F 75% 29.94 in 10.0 mi West 6.9 mph - N/A   Overcast
8:53 AM 36.0 °F - 28.0 °F 73% 29.94 in 10.0 mi Calm Calm - N/A   Overcast
9:53 AM 37.9 °F 32.7 °F 28.0 °F 68% 29.94 in 10.0 mi SSW 6.9 mph - N/A   Scattered Clouds
10:53 AM 39.9 °F 32.9 °F 28.0 °F 63% 29.94 in 10.0 mi SSW 11.5 mph - N/A   Clear
11:53 AM 42.1 °F 36.1 °F 28.9 °F 60% 29.94 in 10.0 mi South 10.4 mph - N/A   Partly Cloudy
12:53 PM 45.0 °F 40.6 °F 28.0 °F 52% 29.92 in 10.0 mi South 8.1 mph - N/A   Partly Cloudy
1:53 PM 50.0 °F - 21.0 °F 32% 29.91 in 10.0 mi NW 15.0 mph 23.0 mph N/A   Clear
2:53 PM 50.0 °F - 16.0 °F 26% 29.93 in 10.0 mi WNW 21.9 mph 32.2 mph N/A   Clear
3:53 PM 48.9 °F - 16.0 °F 27% 29.95 in 10.0 mi NNW 13.8 mph - N/A   Clear
4:53 PM 45.0 °F 37.9 °F 15.1 °F 30% 29.95 in 10.0 mi NW 16.1 mph 24.2 mph N/A   Clear
5:53 PM 37.9 °F 33.5 °F 15.1 °F 39% 29.96 in 10.0 mi North 5.8 mph - N/A   Clear
6:53 PM 35.1 °F 30.1 °F 17.1 °F 48% 29.97 in 10.0 mi SSE 5.8 mph - N/A   Clear
7:53 PM 33.1 °F - 17.1 °F 52% 29.98 in 10.0 mi Calm Calm - N/A   Clear
8:53 PM 32.0 °F - 19.0 °F 59% 29.99 in 10.0 mi Calm Calm - N/A   Clear
9:53 PM 32.0 °F 28.7 °F 19.0 °F 59% 30.01 in 10.0 mi WSW 3.5 mph - N/A   Clear
10:53 PM 28.9 °F - 19.0 °F 67% 30.02 in 10.0 mi Calm Calm - N/A   Clear
11:53 PM 28.0 °F 24.2 °F 19.9 °F 72% 30.02 in 10.0 mi SE 3.5 mph - N/A   Clear